FW9633 Weather Reports


time (UTC)temp
C
wind
direction
speed
KPH
gust
KPH
rain 1hr
cm
rain 24hr
cm
rain mn
cm
humidity
%
barometer
mb
20260503203448 13 255 6.4 16.1 0.00 0.00 0.00 44 1013.1
20260503202945 13 222 14.5 17.7 0.00 0.00 0.00 45 1013.0
20260503202443 13 235 12.9 22.5 0.00 0.00 0.00 44 1013.2
20260503201941 12 234 14.5 19.3 0.00 0.00 0.00 45 1013.5
20260503201438 12 265 11.3 27.4 0.00 0.00 0.00 45 1013.7
20260503200935 13 248 4.8 27.4 0.00 0.00 0.00 43 1013.4
20260503200432 13 178 6.4 30.6 0.00 0.00 0.00 44 1013.5
20260503195928 13 225 6.4 20.9 0.00 0.00 0.00 46 1013.7
20260503195426 12 209 8.0 16.1 0.00 0.00 0.00 47 1013.7
20260503194922 12 262 9.7 17.7 0.00 0.00 0.00 45 1013.8
20260503194419 12 283 4.8 20.9 0.00 0.00 0.00 46 1013.8
20260503193914 12 257 16.1 30.6 0.00 0.00 0.00 47 1013.9
20260503193409 12 251 4.8 22.5 0.00 0.00 0.00 44 1014.0
20260503192905 13 214 6.4 8.0 0.00 0.00 0.00 47 1014.0
20260503192401 12 202 6.4 17.7 0.00 0.00 0.00 45 1014.1
20260503191858 12 172 6.4 17.7 0.00 0.00 0.00 45 1014.4
20260503191355 12 270 0.0 14.5 0.00 0.00 0.00 46 1014.4
20260503190852 12 268 8.0 17.7 0.00 0.00 0.00 44 1014.3
20260503190349 13 276 8.0 17.7 0.00 0.00 0.00 45 1014.4
20260503185846 12 233 20.9 32.2 0.00 0.00 0.00 44 1014.2
20260503185343 12 255 11.3 20.9 0.00 0.00 0.00 44 1014.4
20260503184842 12 291 1.6 14.5 0.00 0.00 0.00 47 1014.5
20260503184339 12 172 3.2 17.7 0.00 0.00 0.00 47 1014.6
20260503183835 12 270 0.0 16.1 0.00 0.00 0.00 47 1014.7
20260503183332 13 245 8.0 12.9 0.00 0.00 0.00 45 1014.6
20260503182829 13 251 8.0 12.9 0.00 0.00 0.00 45 1014.8
20260503182328 12 220 4.8 14.5 0.00 0.00 0.00 46 1014.8
20260503181825 11 194 12.9 24.1 0.00 0.00 0.00 45 1014.6
20260503181322 12 225 6.4 17.7 0.00 0.00 0.00 43 1015.0
20260503180818 13 217 6.4 16.1 0.00 0.00 0.00 47 1015.0
20260503180317 12 251 4.8 12.9 0.00 0.00 0.00 47 1015.0
20260503175813 11 311 4.8 24.1 0.00 0.00 0.00 47 1015.2
20260503175311 12 247 8.0 22.5 0.00 0.00 0.00 46 1015.0
20260503174806 11 266 17.7 30.6 0.00 0.00 0.00 47 1015.0
20260503174304 11 197 17.7 17.7 0.00 0.00 0.00 47 1015.1
20260503173800 11 287 6.4 20.9 0.00 0.00 0.00 49 1015.2
20260503173255 11 193 9.7 16.1 0.00 0.00 0.00 46 1015.3
20260503172753 11 180 3.2 12.9 0.00 0.00 0.00 49 1015.1
20260503172250 10 227 17.7 33.8 0.00 0.00 0.00 46 1015.3
20260503171746 11 305 6.4 30.6 0.00 0.00 0.00 47 1015.3
20260503171244 11 240 8.0 20.9 0.00 0.00 0.00 45 1015.3
20260503170740 11 203 9.7 17.7 0.00 0.00 0.00 49 1015.2
20260503170237 11 253 8.0 11.3 0.00 0.00 0.00 47 1015.3
20260503160159 10 301 3.2 14.5 0.00 0.00 0.00 46 1016.0
20260503150629 7 207 6.4 22.5 0.00 0.00 0.00 47 1016.0
20260503150125 8 270 4.8 16.1 0.00 0.00 0.00 48 1016.4
20260503131019 5 253 8.0 11.3 0.00 0.00 0.00 70 1016.6
20260503130517 5 332 3.2 8.0 0.00 0.00 0.00 71 1016.4
20260503110407 0 192 0.0 4.8 0.00 0.00 0.00 91 1016.2
20260503090258 -1 185 1.6 4.8 0.00 0.00 0.00 92 1015.9
20260503081231 -1 105 0.0 1.6 0.00 0.00 0.00 93 1015.6
20260503080726 -1 173 0.0 3.2 0.00 0.00 0.00 93 1015.8
20260503080224 -1 54 0.0 3.2 0.00 0.00 0.00 93 1015.5
20260503072700 -1 151 0.0 1.6 0.00 0.00 0.00 93 1015.6
20260503072157 -1 105 0.0 0.0 0.00 0.00 0.00 93 1015.8
20260503071654 -1 105 1.6 1.6 0.00 0.00 0.00 92 1015.6
20260503071151 -1 145 0.0 0.0 0.00 0.00 0.00 92 1015.8
20260503070648 -1 145 0.0 0.0 0.00 0.00 0.00 91 1015.6
20260503070146 -1 145 1.6 1.6 0.00 0.00 0.00 91 1015.6
20260503060110 0 195 3.2 3.2 0.00 0.00 0.00 88 1016.0
20260503055102 0 164 0.0 1.6 0.00 0.00 0.00 88 1016.2
20260503054557 0 173 0.0 1.6 0.00 0.00 0.00 88 1015.9
20260503054054 0 229 0.0 3.2 0.00 0.00 0.00 88 1015.9
20260503053552 0 197 3.2 3.2 0.00 0.00 0.00 88 1015.9
20260503053050 0 157 0.0 1.6 0.00 0.00 0.00 88 1016.1
20260503052547 0 111 0.0 1.6 0.00 0.00 0.00 88 1016.0
20260503052043 0 90 0.0 1.6 0.00 0.00 0.00 87 1016.0
20260503051538 0 114 0.0 0.0 0.00 0.00 0.00 87 1016.2
20260503051037 0 98 0.0 1.6 0.00 0.00 0.00 87 1016.2
20260503050532 0 111 0.0 1.6 0.00 0.00 0.00 87 1016.2
20260503050030 0 82 0.0 0.0 0.00 0.00 0.00 87 1016.2
20260503045527 0 107 0.0 1.6 0.00 0.00 0.00 87 1016.4
20260503045024 0 257 1.6 1.6 0.00 0.00 0.00 88 1016.4
20260503044520 0 90 0.0 0.0 0.00 0.00 0.00 88 1016.3
20260503044018 0 151 0.0 3.2 0.00 0.00 0.00 89 1016.5
20260503043514 0 120 0.0 0.0 0.00 0.00 0.00 88 1016.3
20260503043011 -1 120 0.0 3.2 0.00 0.00 0.00 88 1016.2
20260503042508 0 105 0.0 1.6 0.00 0.00 0.00 87 1016.3
20260503042004 0 103 0.0 1.6 0.00 0.00 0.00 87 1016.4
20260503041501 0 148 0.0 0.0 0.00 0.00 0.00 87 1016.5
20260503040959 0 120 0.0 1.6 0.00 0.00 0.00 87 1016.4
20260503040456 0 120 0.0 3.2 0.00 0.00 0.00 86 1016.5
20260503035953 0 114 1.6 1.6 0.00 0.05 0.05 85 1016.5
20260503035450 0 105 0.0 1.6 0.00 0.05 0.05 85 1016.6
20260503034947 0 90 0.0 3.2 0.00 0.05 0.05 84 1016.5
20260503034444 0 109 0.0 1.6 0.00 0.05 0.05 83 1016.6
20260503033941 0 74 0.0 0.0 0.00 0.05 0.05 83 1016.5
20260503033439 0 74 0.0 0.0 0.00 0.05 0.05 83 1016.5
20260503032937 0 90 0.0 1.6 0.00 0.05 0.05 82 1016.4
20260503032435 0 82 1.6 1.6 0.00 0.05 0.05 82 1016.4
20260503031932 0 90 1.6 1.6 0.00 0.05 0.05 81 1016.6
20260503031430 1 63 1.6 1.6 0.00 0.05 0.05 80 1016.8
20260503030926 1 74 0.0 0.0 0.00 0.05 0.05 80 1016.4
20260503030423 1 105 0.0 3.2 0.00 0.05 0.05 80 1016.6
20260503025920 1 106 0.0 0.0 0.00 0.05 0.05 80 1016.7
20260503025417 1 106 0.0 0.0 0.00 0.05 0.05 81 1016.5
20260503024914 1 105 0.0 0.0 0.00 0.05 0.05 82 1016.5
20260503024411 1 66 0.0 0.0 0.00 0.05 0.05 81 1016.6
20260503023908 1 90 0.0 0.0 0.00 0.05 0.05 81 1016.6
20260503023404 1 90 0.0 1.6 0.00 0.05 0.05 80 1016.8
20260503022901 1 120 0.0 0.0 0.00 0.05 0.05 80 1017.0
20260503022355 1 120 0.0 0.0 0.00 0.05 0.05 79 1016.6
20260503021852 1 120 0.0 0.0 0.00 0.05 0.05 79 1016.9
20260503021349 1 120 0.0 0.0 0.00 0.05 0.05 79 1017.0
20260503020846 1 74 0.0 0.0 0.00 0.05 0.05 78 1016.7
20260503020344 1 74 0.0 1.6 0.00 0.05 0.05 78 1016.8
20260503015840 1 75 0.0 3.2 0.00 0.05 0.05 77 1016.7
20260503015337 1 105 0.0 1.6 0.00 0.05 0.05 77 1016.9
20260503014833 1 74 0.0 0.0 0.00 0.05 0.05 76 1016.6
20260503014331 1 90 0.0 0.0 0.00 0.05 0.05 76 1016.9
20260503013828 1 127 0.0 3.2 0.00 0.05 0.05 76 1016.7
20260503013325 1 66 1.6 1.6 0.00 0.05 0.05 75 1016.8
20260503012822 1 60 0.0 1.6 0.00 0.05 0.05 74 1016.6
20260503012320 2 192 0.0 0.0 0.00 0.05 0.05 74 1016.6
20260503011816 2 125 3.2 3.2 0.00 0.05 0.05 73 1016.7
20260503011313 2 66 0.0 3.2 0.00 0.05 0.05 73 1016.4
20260503010809 2 90 0.0 1.6 0.00 0.05 0.05 73 1016.5
20260503010307 2 220 0.0 6.4 0.00 0.05 0.05 72 1016.5
20260503005804 2 97 0.0 3.2 0.00 0.05 0.05 72 1016.5
20260503005304 2 75 0.0 3.2 0.00 0.05 0.05 71 1016.4
20260503004756 2 251 0.0 4.8 0.00 0.05 0.05 71 1016.3
20260503004255 2 18 1.6 4.8 0.00 0.05 0.05 70 1016.2
20260503003752 2 51 3.2 4.8 0.00 0.05 0.05 69 1016.3
20260503003249 2 98 0.0 3.2 0.00 0.05 0.05 70 1016.5
20260503002745 2 35 0.0 3.2 0.00 0.05 0.05 69 1016.2
20260503002243 2 140 0.0 4.8 0.00 0.05 0.05 68 1016.2
20260503001739 2 75 1.6 3.2 0.00 0.05 0.05 68 1016.3
20260503001235 2 115 0.0 9.7 0.00 0.05 0.05 66 1016.4
20260503000733 3 29 3.2 6.4 0.00 0.05 0.05 66 1016.6
20260503000233 3 45 3.2 4.8 0.00 0.05 0.05 65 1016.2
20260502235727 3 90 0.0 8.0 0.00 0.05 0.05 63 1016.1
20260502235225 3 105 0.0 4.8 0.00 0.05 0.05 64 1016.1
20260502234721 3 0 4.8 6.4 0.00 0.05 0.05 65 1016.2
20260502234218 3 195 0.0 4.8 0.00 0.05 0.05 66 1016.2
20260502233714 3 40 1.6 6.4 0.00 0.05 0.05 64 1016.0
20260502233211 3 18 0.0 6.4 0.00 0.05 0.05 65 1016.0
20260502232707 3 53 3.2 6.4 0.00 0.05 0.05 64 1016.1
20260502232204 3 63 1.6 4.8 0.00 0.05 0.05 64 1016.1
20260502231701 3 75 4.8 4.8 0.00 0.05 0.05 62 1016.2
20260502231159 3 9 3.2 6.4 0.00 0.05 0.05 63 1016.0
20260502230657 3 63 0.0 4.8 0.00 0.05 0.05 61 1016.1
20260502230155 3 331 0.0 8.0 0.00 0.05 0.05 61 1016.0
20260502225650 3 194 4.8 4.8 0.00 0.05 0.05 62 1016.0
20260502225148 3 53 3.2 8.0 0.00 0.05 0.05 63 1015.9
20260502224644 3 37 4.8 11.3 0.00 0.05 0.05 62 1015.9
20260502224141 4 289 0.0 4.8 0.00 0.05 0.05 63 1016.0
20260502223639 4 169 3.2 4.8 0.00 0.05 0.05 64 1016.0
20260502223137 4 297 0.0 4.8 0.00 0.05 0.05 63 1015.8
20260502222634 4 342 0.0 8.0 0.00 0.05 0.05 61 1015.8
20260502222125 4 14 4.8 4.8 0.00 0.05 0.05 64 1015.9
20260502221620 4 22 4.8 11.3 0.00 0.05 0.05 61 1015.8
20260502221118 5 16 3.2 4.8 0.00 0.05 0.05 64 1016.0
20260502220614 5 336 0.0 3.2 0.00 0.05 0.05 62 1015.8
20260502220110 5 355 1.6 8.0 0.00 0.05 0.05 60 1015.6
20260502215607 5 221 3.2 9.7 0.00 0.05 0.05 61 1015.8
20260502215104 5 59 12.9 14.5 0.00 0.05 0.05 60 1015.8
20260502214601 5 99 4.8 6.4 0.00 0.05 0.05 59 1015.9
20260502214059 5 0 4.8 6.4 0.00 0.05 0.05 61 1015.8
20260502213555 5 170 4.8 8.0 0.00 0.05 0.05 61 1015.5
20260502213053 5 24 3.2 6.4 0.00 0.05 0.05 63 1015.5
20260502212552 5 29 0.0 4.8 0.00 0.05 0.05 62 1015.4
20260502212049 5 184 3.2 8.0 0.00 0.05 0.05 60 1015.6
20260502211544 5 187 3.2 8.0 0.00 0.05 0.05 59 1015.9
20260502211042 5 279 3.2 9.7 0.00 0.05 0.05 57 1015.5
20260502210539 5 200 4.8 9.7 0.00 0.05 0.05 61 1015.3
20260502210036 5 98 4.8 4.8 0.00 0.05 0.05 60 1015.4
20260502205532 5 270 6.4 17.7 0.00 0.05 0.05 56 1015.5
20260502205030 5 243 0.0 11.3 0.00 0.05 0.05 57 1015.4
20260502204526 5 286 3.2 8.0 0.00 0.05 0.05 62 1015.6
20260502204024 5 246 8.0 8.0 0.00 0.05 0.05 61 1015.3